[[{"header":{"parameterUnit":"m.s-1","parameterCategory":1,"la1":30.2992,"la2":30.254,"lo1":-89.0895,"lo2":-89.0443,"dy":0.0025,"dx":0.0025,"nx":19,"ny":19,"refTime":"2026-05-11T09:00:00:Z","depth":0,"parameterNumber":2,"parameterNumberName":"U-component_of_WINDS"},"data":[0,0,0,-0.2309,-0.231,-0.236,-0.236,-0.2424,-0.2425,0,0,0,0,0,0,0,0,0,0,0,-0.2293,-0.2294,-0.2309,-0.231,-0.236,-0.236,-0.2424,-0.2425,0,0,0,0,0,0,0,0,0,0,0,-0.2293,-0.2294,-0.2294,-0.2311,-0.236,-0.236,-0.2424,-0.2387,0,0,0,0,0,0,0,0,0,0,-0.2339,-0.2322,-0.2293,-0.2294,-0.2311,-0.236,-0.236,-0.2385,-0.2389,-0.2401,0,-0.241,0,-0.2418,-0.2429,-0.2429,0,0,0,-0.2312,-0.2319,-0.2333,-0.2294,-0.2311,-0.236,-0.2338,-0.2387,-0.2392,-0.2407,-0.2411,-0.2414,-0.2419,-0.2429,-0.2429,-0.2492,-0.2492,0,0,-0.2309,-0.2302,-0.233,-0.2336,-0.2326,-0.2336,-0.2339,-0.239,-0.2395,-0.2411,-0.2415,-0.242,-0.243,-0.243,-0.2492,-0.2492,0,0,0,-0.23,-0.23,-0.2313,-0.2333,-0.2342,-0.2338,-0.2341,-0.2393,-0.2398,-0.2416,-0.2421,-0.243,-0.2431,-0.2492,-0.2492,-0.2496,0,0,0,-0.2299,-0.2295,-0.2312,-0.2308,-0.2341,-0.2368,-0.2343,-0.2394,-0.24,-0.2421,-0.243,-0.2431,-0.2491,-0.2492,-0.2495,-0.2499,0,0,0,-0.2291,-0.2294,-0.23,-0.2307,-0.2328,-0.2367,-0.2375,-0.2396,-0.2403,-0.2429,-0.2431,-0.2491,-0.2492,-0.2495,-0.2499,-0.2515,0,0,0,-0.228,-0.2303,-0.23,-0.2328,-0.2328,-0.2368,-0.2374,-0.2405,-0.2428,-0.243,-0.2491,-0.2492,-0.2494,-0.2498,-0.2514,-0.2528,-0.2532,0,0,-0.2305,-0.2306,-0.2323,-0.2322,-0.236,-0.2361,-0.2401,-0.243,-0.244,-0.2475,-0.2476,-0.2495,-0.2498,-0.2515,-0.2558,-0.2561,0,0,0,-0.2328,-0.2341,-0.2352,-0.2373,-0.2394,-0.2413,-0.2435,-0.2446,-0.2476,-0.2455,-0.2505,-0.2507,-0.2517,-0.2524,-0.2527,-0.2537,-0.2494,-0.2494,-0.2494,-0.2354,-0.2364,-0.2394,-0.241,-0.243,-0.2453,-0.2471,-0.2489,-0.2495,-0.2506,-0.2517,-0.2542,-0.255,-0.2552,-0.2562,-0.2524,-0.2524,-0.2524,-0.2524,-0.2393,-0.2412,-0.2418,-0.2449,-0.246,-0.2487,-0.2511,-0.2514,-0.2541,-0.2534,-0.2544,-0.2536,-0.2556,-0.2565,-0.2525,-0.2524,-0.2524,-0.2524,-0.2524,-0.2412,-0.2423,-0.2434,-0.2465,-0.2488,-0.2505,-0.2531,-0.2541,-0.255,-0.2559,-0.2573,-0.2573,-0.2575,-0.2565,-0.2565,-0.2565,-0.2565,-0.2565,-0.2565,-0.2428,-0.244,-0.246,-0.2485,-0.2499,-0.252,-0.2544,-0.2559,-0.2579,-0.2585,-0.2585,-0.259,-0.2554,-0.2546,-0.2566,-0.2566,-0.2566,-0.2566,-0.2566,-0.2466,-0.2459,-0.2489,-0.2504,-0.2534,-0.2557,-0.2569,-0.26,-0.2614,-0.2627,-0.263,-0.2601,-0.2604,-0.2601,-0.2595,-0.2626,-0.2626,-0.2626,-0.2626,-0.2483,-0.2484,-0.2519,-0.2542,-0.2565,-0.2579,-0.2616,-0.2635,-0.2654,-0.2664,-0.266,-0.2652,-0.2649,-0.2653,-0.265,-0.2644,-0.2687,-0.2687,-0.2687,-0.2508,-0.2512,-0.2541,-0.2557,-0.2582,-0.2603,-0.2639,-0.2667,-0.2687,-0.269,-0.2672,-0.267,-0.2656,-0.2651,-0.2655,-0.2649,-0.2639,0,0]},{"header":{"parameterUnit":"m.s-1","parameterCategory":1,"la1":30.2992,"la2":30.254,"lo1":-89.0895,"lo2":-89.0443,"dy":0.0025,"dx":0.0025,"nx":19,"ny":19,"refTime":"2026-05-11T09:00:00:Z","depth":0,"parameterNumber":3,"parameterNumberName":"V-component_of_WINDS"},"data":[0,0,0,-0.0038,-0.0038,-0.004,-0.004,-0.0027,-0.0027,0,0,0,0,0,0,0,0,0,0,0,-0.0028,-0.0028,-0.0038,-0.0038,-0.004,-0.004,-0.0027,-0.0027,0,0,0,0,0,0,0,0,0,0,0,-0.0029,-0.0028,-0.0028,-0.0038,-0.004,-0.004,-0.0027,-0.0031,0,0,0,0,0,0,0,0,0,0,-0.0032,-0.0014,-0.0028,-0.0028,-0.0038,-0.004,-0.004,-0.0032,-0.0031,-0.002,0,-0.0008,0,-0.0017,-0.0025,-0.0025,0,0,0,-0.0044,-0.0015,-0.0024,-0.0028,-0.0038,-0.004,-0.0041,-0.0031,-0.0031,-0.0019,-0.0008,-0.0008,-0.0017,-0.0025,-0.0025,0.006,0.0061,0,0,-0.0044,-0.0024,-0.0024,-0.0023,-0.0022,-0.0041,-0.0041,-0.0031,-0.0018,-0.0008,-0.0008,-0.0017,-0.0025,-0.0025,0.0059,0.006,0,0,0,-0.0039,-0.0023,-0.0033,-0.0023,-0.0024,-0.004,-0.0041,-0.0018,-0.0023,-0.0008,-0.0017,-0.0025,-0.0024,0.0059,0.006,0.0115,0,0,0,-0.004,-0.0021,-0.0032,-0.002,-0.0024,-0.0021,-0.0027,-0.0024,-0.0023,-0.0017,-0.0025,-0.0024,0.0058,0.0059,0.0112,0.0138,0,0,0,-0.0031,-0.002,-0.0017,-0.0019,-0.0019,-0.0022,-0.0026,-0.0024,-0.0028,-0.0025,-0.0024,0.0057,0.0059,0.0109,0.0133,0.0167,0,0,0,-0.0016,0.0032,-0.0016,0.0035,-0.0019,0.0012,-0.0027,-0.0005,0.0004,-0.0025,0.0058,0.006,0.0108,0.013,0.0164,0.02,0.0217,0,0,0.0056,0.0041,0.0069,0.0026,0.0071,0.0011,0.0063,0.0052,0.0034,0.0052,0.0054,0.0113,0.0133,0.0167,0.03,0.0314,0,0,0,0.0099,0.012,0.0127,0.0137,0.0129,0.0125,0.0104,0.01,0.0114,0.0047,0.0133,0.0144,0.0163,0.0179,0.0191,0.0206,0.0068,0.0067,0.0067,0.0232,0.0206,0.025,0.0224,0.0234,0.0211,0.0216,0.0207,0.0177,0.0198,0.0204,0.0288,0.0308,0.0316,0.0333,0.022,0.022,0.022,0.022,0.0337,0.0362,0.0321,0.035,0.0322,0.0346,0.0326,0.0304,0.0323,0.0282,0.0297,0.0256,0.0332,0.0345,0.0224,0.0223,0.0223,0.0222,0.0222,0.0422,0.043,0.0423,0.0434,0.0446,0.0416,0.0436,0.0409,0.0384,0.0399,0.0403,0.0402,0.0399,0.0403,0.0403,0.0403,0.0403,0.0404,0.0404,0.0514,0.0505,0.0524,0.052,0.0523,0.0523,0.05,0.0502,0.0497,0.0476,0.0476,0.0445,0.0344,0.032,0.0408,0.0407,0.0407,0.0406,0.0406,0.0632,0.0601,0.0632,0.0634,0.0627,0.064,0.0605,0.0611,0.0609,0.0619,0.0585,0.0514,0.0497,0.0488,0.0468,0.059,0.059,0.059,0.059,0.0705,0.0694,0.0719,0.0725,0.0727,0.0699,0.0735,0.0717,0.0694,0.0691,0.0669,0.064,0.0632,0.062,0.0608,0.0589,0.0739,0.0739,0.0739,0.0777,0.0764,0.08,0.0777,0.0769,0.0763,0.0796,0.0805,0.0772,0.0744,0.0689,0.0682,0.0634,0.062,0.0593,0.0574,0.0539,0,0]}]]